Regional Weather Roundup
Issued by NWS

Home | Current Version | Previous Version | Text Only | Print | Product List | Glossary On
Versions: 1 2 3 4 5 6 7 8 9 10 11 12 13 14 15 16 17 18 19 20 21 22 23 24 25 26 27 28 29 30 31 32 33 34 35 36 37 38 39 40 41 42 43 44 45 46 47 48 49 50
000
ASUS44 KFWD 231810
RWRTX
NORTH TEXAS HOURLY WEATHER ROUNDUP
NATIONAL WEATHER SERVICE FORT WORTH TX
1200 PM CST FRI FEB 23 2018

NOTE: "FAIR" INDICATES FEW OR NO CLOUDS BELOW 12,000 FEET WITH NO
SIGNIFICANT WEATHER AND/OR OBSTRUCTIONS TO VISIBILITY.

TXZ118-119-231900-
DALLAS/FORT WORTH METROPLEX

CITY           SKY/WX    TMP DP  RH WIND       PRES   REMARKS
DFW AIRPORT    CLOUDY    46  44  93 N9        30.17F FOG
6HR MIN TEMP:  41; 6HR MAX TEMP:  46; 6HR PCP: TRACE;

DALLAS LOVE    CLOUDY    46  44  93 NW7       30.21F FOG
6HR MIN TEMP:  41; 6HR MAX TEMP:  46; 6HR PCP:  0.05;

FTW MEACHAM    CLOUDY    45  43  93 N10       30.17F FOG     WCI  40
6HR MIN TEMP:  40; 6HR MAX TEMP:  45; 6HR PCP:  0.01;

DAL-EXECUTIVE  CLOUDY    45  45 100 N6        30.18F FOG
6HR MIN TEMP:  41; 6HR MAX TEMP:  46; 6HR PCP:  0.01;

FTW-ALLIANCE   CLOUDY    43  42  97 NE6       30.19F FOG     WCI  39
6HR MIN TEMP:  38; 6HR MAX TEMP:  43; 6HR PCP: TRACE;

FTW-NAS-JRB    CLOUDY    44  41  89 N6        30.19F FOG
6HR MIN TEMP:  39; 6HR MAX TEMP:  44; 6HR PCP: TRACE;

FTW-SPINKS     FOG       45  45 100 CALM      30.20F VSB 1
ARLINGTON      CLOUDY    43  43 100 N6        30.19F FOG     WCI  39
6HR MIN TEMP:  38; 6HR MAX TEMP:  43; 6HR PCP:  0.02;

GRAND PRAIRIE  CLOUDY    45  45 100 CALM      30.21F
ADDISON        CLOUDY    45  43  93 NW5       30.22  FOG
MESQUITE       CLOUDY    46  45  93 NW6       30.22R FOG
LANCASTER      CLOUDY    46  45  97 NW6       30.22F
6HR MIN TEMP:  40; 6HR MAX TEMP:  46;

$$

TXZ091>094-102>105-117-120-121-131>134-231900-
NORTH CENTRAL TEXAS

CITY           SKY/WX    TMP DP  RH WIND       PRES   REMARKS
SHRMAN/DENISON CLOUDY    43  42  98 NE6       30.21F FOG     WCI  39
6HR MIN TEMP:  37; 6HR MAX TEMP:  43; 6HR PCP:  0.43;

GAINESVILLE    CLOUDY    39  38  97 CALM      30.22F FOG
6HR MIN TEMP:  34; 6HR MAX TEMP:  39; 6HR PCP:  0.36;

BOWIE          DRIZZLE   34  34  99 NE5       30.19F WCI  30
6HR MIN TEMP:  32; 6HR MAX TEMP:  35;

BRIDGEPORT     CLOUDY    38  38 100 NE5       30.22F FOG     WCI  35
6HR MIN TEMP:  35; 6HR MAX TEMP:  38; 6HR PCP:  0.46;

DECATUR        CLOUDY    41  40  98 NE7       30.17F FOG     WCI  36
6HR MIN TEMP:  34; 6HR MAX TEMP:  41; 6HR PCP:  0.55;

DENTON         CLOUDY    42  41  96 NE5       30.20F WCI  39
6HR MIN TEMP:  37; 6HR MAX TEMP:  42; 6HR PCP:  0.15;

MCKINNEY       CLOUDY    45  45 100 N5        30.21F FOG
6HR MIN TEMP:  40; 6HR MAX TEMP:  45; 6HR PCP:  0.30;

BONHAM         DRIZZLE   41  41  99 NW7       30.22R FOG     WCI  37
6HR MIN TEMP:  38; 6HR MAX TEMP:  42; 6HR PCP:  0.17;

GREENVILLE     DRZL/FOG  50  50 100 CALM      30.21S VSB 3/4
ROCKWALL       DRIZZLE   46  46 100 NW5       30.22R
6HR MIN TEMP:  41; 6HR MAX TEMP:  46; 6HR PCP:  0.02;

TERRELL        LGT RAIN  47  46  97 N3        30.21S FOG
6HR MIN TEMP:  43; 6HR MAX TEMP:  48; 6HR PCP: TRACE;

WAXAHACHIE     CLOUDY    46  46 100 N3        30.20F FOG
6HR MIN TEMP:  40; 6HR MAX TEMP:  46;

CLEBURNE       CLOUDY    45  45 100 NE7       30.19F FOG
GRANBURY       CLOUDY    44  42  95 N3        30.19F FOG
6HR MIN TEMP:  39; 6HR MAX TEMP:  44; 6HR PCP:  0.01;

$$

TXZ083>090-098>101-113>116-127>130-139>142-154-155-231900-
WESTERN NORTH TEXAS

CITY           SKY/WX    TMP DP  RH WIND       PRES   REMARKS
WICHITA FALLS  RAIN      35  34  96 N7        30.20F FOG     WCI  29
6HR MIN TEMP:  33; 6HR MAX TEMP:  35; 6HR PCP:  0.79;

WF-KICKAPOO    DRIZZLE   35  34  98 N3        30.23F
6HR MIN TEMP:  33; 6HR MAX TEMP:  35; 6HR PCP:  0.50;

VERNON         CLOUDY    36  33  90 E5        30.22F WCI  32
6HR MIN TEMP:  25; 6HR MAX TEMP:  37; 6HR PCP:  0.13;

ABILENE        FOG       37  37 100 N6        30.14F VSB 3/4 WCI  32
6HR MIN TEMP:  33; 6HR MAX TEMP:  38;

ABILENE-DYESS  DRZL/FOG  39  39 100 N6        30.13F VSB 1   WCI  35
6HR MIN TEMP:  35; 6HR MAX TEMP:  39; 6HR PCP:  0.01;

GRAHAM           N/A     35  32  88 CALM      30.17F
6HR MIN TEMP:  33; 6HR MAX TEMP:  35; 6HR PCP:  0.02;

BRECKENRIDGE   CLOUDY    38  38 100 E3        30.17F FOG
6HR MIN TEMP:  35; 6HR MAX TEMP:  38; 6HR PCP:  0.36;

CISCO          MIX PCPN  36  36 100 N5        30.15F VSB<1/4 WCI  32
EASTLAND       CLOUDY    37  36  99 NE5       30.15F FOG     WCI  33
6HR MIN TEMP:  33; 6HR MAX TEMP:  37; 6HR PCP:  0.12;

RANGER         LGT RAIN  38  38 100 N5        30.16F VSB<1/4 WCI  34
6HR MIN TEMP:  33; 6HR MAX TEMP:  38;

MINERAL WELLS  CLOUDY    39  38  96 NE6       30.17F FOG     WCI  35
6HR MIN TEMP:  35; 6HR MAX TEMP:  40; 6HR PCP:  0.49;

STEPHENVILLE   CLOUDY    44  43  95 CALM      30.18F VSB 1/2
6HR MIN TEMP:  37; 6HR MAX TEMP:  44;

COMANCHE       DRIZZLE   44  44 100 E3        30.15F
6HR MIN TEMP:  39; 6HR MAX TEMP:  44; 6HR PCP:  0.04;

BROWNWOOD      PTSUNNY   48  48 100 E3        30.13F
COLEMAN        CLOUDY    44  44  97 NE3       30.13F FOG
6HR MIN TEMP:  40; 6HR MAX TEMP:  45;

$$

TXZ143>147-156>162-174-175-231900-
CENTRAL TEXAS

CITY           SKY/WX    TMP DP  RH WIND       PRES   REMARKS
WACO           CLOUDY    49  47  93 E6        30.18F
6HR MIN TEMP:  41; 6HR MAX TEMP:  49; 6HR PCP:  0.01;

WACO-TSTC      CLOUDY    48  48 100 CALM      30.19F FOG
WACO-MCGREGOR  CLOUDY    49  48  97 E6        30.18F
6HR MIN TEMP:  41; 6HR MAX TEMP:  49; 6HR PCP:  0.02;

HILLSBORO      CLOUDY    49  49 100 CALM      30.18F
6HR MIN TEMP:  41; 6HR MAX TEMP:  49; 6HR PCP:  0.09;

CORSICANA      CLOUDY    47  47 100 N7        30.20F FOG
6HR MIN TEMP:  42; 6HR MAX TEMP:  50; 6HR PCP: TRACE;

MEXIA          CLOUDY    46  46  97 NW8       30.19F FOG
6HR MIN TEMP:  41; 6HR MAX TEMP:  50;

HEARNE         FOG       50  50 100 NW6       30.20F VSB 1/2
6HR MIN TEMP:  43; 6HR MAX TEMP:  51; 6HR PCP:  0.01;

CAMERON        FOG       48  48  99 CALM      30.19F VSB 1
6HR MIN TEMP:  42; 6HR MAX TEMP:  48; 6HR PCP:  0.02;

TEMPLE         CLOUDY    50  50 100 E5        30.17F FOG
6HR MIN TEMP:  40; 6HR MAX TEMP:  50; 6HR PCP:  0.06;

KILLEEN        CLOUDY    52  50  93 SE3       30.14F
                                      6HR PCP:  0.05;

KILLEEN-SKYLRK CLOUDY    51  49  92 CALM      30.17S
6HR MIN TEMP:  41; 6HR MAX TEMP:  51; 6HR PCP:  0.05;

FORT HOOD      CLOUDY    50  48  93 E3        30.16F
GATESVILLE     CLOUDY    52  48  87 CALM      30.18S
HAMILTON       CLOUDY    47  47 100 E6        30.15F
6HR MIN TEMP:  40; 6HR MAX TEMP:  47;

LAMPASAS       CLOUDY    47  47  97 SE5       30.14F FOG
6HR MIN TEMP:  40; 6HR MAX TEMP:  47; 6HR PCP:  0.01;

$$

TXZ095>097-106>112-122>126-135>138-148>153-164>167-231900-
EAST TEXAS

CITY           SKY/WX    TMP DP  RH WIND       PRES   REMARKS
PARIS          CLOUDY    49  49 100 SE7       30.20S FOG
6HR MIN TEMP:  42; 6HR MAX TEMP:  49; 6HR PCP:  0.51;

SULPHUR SPRNGS FOG       50  50 100 NW6       30.22R VSB 1/2
6HR MIN TEMP:  44; 6HR MAX TEMP:  50; 6HR PCP:  0.02;

MOUNT PLEASANT CLOUDY    55  55  98 SE12      30.20F
6HR MIN TEMP:  46; 6HR MAX TEMP:  55;

GILMER           N/A     55  55 100 E3        30.18F FOG
6HR MIN TEMP:  46; 6HR MAX TEMP:  55;

MINEOLA        CLOUDY    55  55 100 SE5       30.16F FOG
TYLER          CLOUDY    59  59 100 SE10      30.16F
6HR MIN TEMP:  47; 6HR MAX TEMP:  59;

LONGVIEW       FOG       59  59 100 E5        30.18F VSB 3/4
6HR MIN TEMP:  52; 6HR MAX TEMP:  59; 6HR PCP:  0.01;

MARSHALL       CLOUDY    57  55  94 CALM      30.21F
6HR MIN TEMP:  52; 6HR MAX TEMP:  57;

ATHENS         CLOUDY    54  54 100 W6        30.18R
PALESTINE      CLOUDY    61  61 100 SE8       30.18F
JACKSONVILLE   FOG       59  59 100 SE5       30.19F VSB 1/2
HENDERSON      CLOUDY    60  60  99 CALM      30.20S FOG
6HR MIN TEMP:  51; 6HR MAX TEMP:  60;

CENTER           N/A     69  65  88 E5        30.19F
6HR MIN TEMP:  53; 6HR MAX TEMP:  69;

NACOGDOCHES    FAIR      72  66  83 SE7       30.17F
6HR MIN TEMP:  53; 6HR MAX TEMP:  72; 6HR PCP: TRACE;

LUFKIN         PTSUNNY   75  67  76 S15       30.16F
6HR MIN TEMP:  55; 6HR MAX TEMP:  75;

$$

SUPPLEMENTAL OBSERVATIONS (NWS FORT WORTH AREA)

CITY           SKY/WX    TMP DP  RH WIND       PRE



USA.gov is the U.S. government's official web portal to all federal, state and local government web resources and services.